302  
ASUS41 KRLX 150310  
RWRRLX  
REGIONAL WEATHER ROUNDUP  
NATIONAL WEATHER SERVICE CHARLESTON WV  
1100 PM EDT SUN AUG 14 2022  
 
NOTE: "FAIR" INDICATES FEW OR NO CLOUDS BELOW 12,000 FEET WITH NO  
SIGNIFICANT WEATHER AND/OR S TO VISIBILITY
.  
 
WVZ003-150400-  
NORTHERN PANHANDLE OF WEST VIRGINIA  
 
CITY SKY/WX TMP DP RH WIND PRES REMARKS
 
WHEELING CLOUDY 64 60 87 SE6 30.00F  

 
 
WVZ009-150400-  
NORTHWEST WEST VIRGINIA  
 
CITY SKY/WX TMP DP RH WIND PRES REMARKS
 
PARKERSBURG MOCLDY 64 61 90 E3 29.97F  

 
 
WVZ006-150400-  
WESTERN WEST VIRGINIA  
 
CITY SKY/WX TMP DP RH WIND PRES REMARKS
 
HUNTINGTON LGT RAIN 65 63 93 E6 29.94S  
POINT PLEASANT LGT RAIN 64 64 100 CALM 29.97F  

 
 
WVZ015-150400-  
WEST CENTRAL WEST VIRGINIA  
 
CITY SKY/WX TMP DP RH WIND PRES REMARKS
 
CHARLESTON LGT RAIN 65 65 100 E3 29.96F FOG  

 
 
WVZ509-031-039-150400-  
NORTH CENTRAL WEST VIRGINIA  
 
CITY SKY/WX TMP DP RH WIND PRES REMARKS
 
MORGANTOWN CLOUDY 65 59 81 CALM 30.02S  
CLARKSBURG CLOUDY 67 61 81 CALM 30.00F  
BUCKHANNON FOG 63 63 100 CALM 30.01F VSB<1/4  

 
 
WVZ515-516-025-034-042-507-150400-  
SOUTHERN WEST VIRGINIA  
 
CITY SKY/WX TMP DP RH WIND PRES REMARKS
 
BECKLEY LGT RAIN 62 61 96 CALM 30.06F  
LOGAN CLOUDY 66 66 100 S6 29.99F  
PINEVILLE NOT AVBL  
BLUEFIELD LGT RAIN 61 61 100 S3 30.08F  
LEWISBURG MOCLDY 62 62 98 CALM 30.06F  

 
 
WVZ525-526-150400-  
NORTHERN MOUNTAINS OF WEST VIRGINIA  
 
CITY SKY/WX TMP DP RH WIND PRES REMARKS
 
ELKINS CLOUDY 62 60 93 CALM 30.04F  

 
 
WVZ502-504-052-150400-  
EASTERN PANHANDLE OF WEST VIRGINIA  
 
CITY SKY/WX TMP DP RH WIND PRES REMARKS
 
PETERSBURG CLOUDY 63 63 100 CALM 30.04F  
CUMBERLAND NOT AVBL  
MARTINSBURG CLOUDY 64 63 96 SE5 30.02S  

 
 
OHZ075-083-KYZ101-150400-  
SOUTHEAST OHIO/NORTHEAST KENTUCKY  
 
CITY SKY/WX TMP DP RH WIND PRES REMARKS
 
ATHENS CLOUDY 63 63 100 CALM 29.97S  
JACKSON NOT AVBL  
ASHLAND CLOUDY 64 N/A N/A E7 29.94F  

 
 
 
CLICK HERE TO GO TO PREVIOUS BULLETINS.

The Nexlab WV Page
The Nexlab OH Page
The Nexlab KY Page
The Nexlab VA Page Main Text Page